Helicity
185 196 194 202 192 199 206 233 282 288 349 335 311 265 237 225 210 175 140 127 106 99 95 74 64 57 53 38 30 15 24 20 40 30 48 34 43 54 87 56 79 59 91
225 196 208 206 191 195 203 232 258 292 321 303 268 271 235 220 202 178 166 132 119 103 97 84 76 64 50 47 32 22 -0 -12 12 2 -13 5 22 55 50 81 62 79 68
237 219 224 219 229 209 214 230 245 269 294 304 347 367 336 298 263 219 187 146 128 114 107 98 82 72 56 44 26 20 23 9 8 44 27 30 48 35 49 44 53 59 52
244 318 271 261 265 226 224 234 241 260 294 334 337 293 272 239 181 180 163 151 132 124 112 101 91 80 56 52 31 34 33 44 51 38 76 77 104 103 77 72 45 51 51
281 313 318 293 278 274 256 240 250 274 288 307 286 272 260 216 207 213 195 163 146 130 118 111 100 88 67 54 54 51 60 60 67 78 90 97 110 97 137 108 73 52 71
160 289 331 313 304 281 283 258 264 266 267 267 258 255 253 244 253 217 197 162 144 134 123 117 104 88 76 66 59 58 64 79 82 96 107 113 123 116 115 114 88 83 82
201 297 313 357 346 319 294 257 269 269 247 239 244 256 238 218 204 190 179 167 143 128 114 107 101 85 72 65 65 68 77 90 95 104 114 126 133 154 151 145 116 115 115
226 415 512 408 371 351 341 282 280 282 254 246 249 239 232 231 214 191 177 152 129 121 108 110 101 89 82 75 79 92 102 100 109 107 125 132 135 152 157 160 130 109 125
415 509 565 490 399 363 349 331 313 304 257 249 255 261 277 269 238 217 191 165 149 130 125 124 115 106 100 98 103 108 111 124 122 128 136 143 145 155 162 173 187 172 128
450 531 564 518 401 374 380 352 337 308 284 293 297 307 297 283 257 228 202 178 161 154 147 139 127 116 111 114 124 128 137 142 135 141 147 145 162 161 167 169 190 198 211
428 539 547 474 448 431 411 390 378 349 329 332 335 344 314 283 254 229 197 175 167 155 149 138 130 123 120 131 141 141 138 147 137 146 155 148 162 168 182 187 190 190 191
384 493 531 528 491 421 420 391 367 360 349 346 348 327 299 273 251 218 189 171 162 152 148 144 136 128 128 134 144 148 154 146 147 155 163 167 160 182 184 196 178 176 163
444 480 515 524 471 436 422 396 368 366 352 347 337 304 278 256 223 196 177 168 158 156 150 144 139 131 134 143 151 157 153 151 152 155 172 170 177 181 177 169 163 163 155
467 509 493 465 467 450 415 404 374 350 334 322 301 280 242 213 193 179 172 166 156 154 149 144 139 140 145 156 155 160 155 152 152 152 160 156 166 158 148 144 138 121 140
401 435 506 500 513 464 412 381 372 343 318 305 274 244 226 205 191 183 174 163 162 155 147 153 155 156 167 155 160 154 148 158 164 157 145 143 124 82 98 128 120 128 144
415 466 489 505 472 411 382 368 352 325 295 277 256 235 215 198 186 177 170 166 161 157 157 163 166 163 158 152 148 161 169 165 162 155 140 133 99 96 72 74 72 94 124
454 472 450 444 411 392 379 363 336 311 295 273 246 221 200 195 182 173 167 159 156 153 163 169 165 153 148 146 155 160 175 165 153 135 130 122 118 98 110 90 75 89 71
446 425 443 411 379 386 380 360 326 303 286 270 242 214 196 185 173 162 158 150 150 159 155 154 146 147 152 161 158 162 169 150 131 123 120 126 116 118 92 106 112 116 129
439 430 397 394 371 353 333 334 306 291 280 248 224 198 178 166 154 156 148 140 150 158 151 141 142 159 154 156 159 156 145 132 122 120 123 121 116 73 54 94 80 71 84
461 411 361 366 369 322 312 316 300 281 257 214 192 174 154 144 152 144 145 138 149 142 140 139 150 142 152 134 138 142 133 124 122 110 119 72 72 55 65 82 77 78 97
437 404 366 354 335 297 291 304 281 263 211 189 168 151 142 135 130 141 139 150 147 140 145 155 144 133 122 126 120 121 123 117 104 105 106 106 56 57 52 52 80 84 77
511 451 423 390 329 274 282 281 273 206 180 162 160 161 146 141 139 142 144 137 146 160 159 145 137 132 122 104 102 98 95 85 108 102 101 98 51 51 43 49 26 47 77
536 439 410 387 333 287 246 258 197 177 169 170 164 149 145 152 161 154 154 154 167 161 148 137 131 126 117 117 86 89 93 84 99 91 59 59 43 39 42 27 35 54 111
516 424 401 373 328 263 238 201 175 159 153 145 134 135 148 159 159 154 160 164 157 153 135 127 121 107 96 101 115 123 92 57 71 52 56 42 43 37 31 52 73 90 90
439 374 353 326 282 232 201 156 130 116 119 111 116 130 131 139 147 155 146 152 133 128 127 109 99 89 84 89 77 82 76 68 58 67 42 51 54 55 54 66 73 71 61
348 349 298 237 190 161 140 120 98 89 94 108 110 107 120 129 142 140 145 147 146 141 135 114 104 91 78 77 82 72 67 58 43 62 57 51 50 48 43 47 61 70 61
Wind_Speed
57 51 44 38 30 26 27 27 23 19 16 12 8 4 5 8 10 13 17 20 22 25 28 32 35 40 45 48 52 53 59 62 67 60 60 54 54 47 64 65 67 67 71
59 55 48 41 36 30 30 29 27 24 19 14 9 4 5 4 7 11 14 18 20 24 27 31 35 39 43 49 53 57 58 60 67 64 56 61 55 55 74 65 67 70 74
64 60 52 44 39 34 32 31 30 26 21 16 10 4 1 3 5 7 11 15 18 22 26 30 34 39 43 49 52 57 60 64 63 64 61 63 62 79 56 69 69 78 78
64 58 53 47 43 37 33 32 30 28 23 19 15 13 9 6 4 3 8 12 16 21 25 29 35 39 43 48 52 55 59 61 67 59 63 57 59 70 80 67 82 74 80
68 60 54 47 43 40 37 34 33 29 24 21 18 13 10 10 2 2 6 10 15 20 24 29 35 40 44 47 52 56 60 60 63 64 64 64 65 61 70 91 88 87 81
51 55 54 50 44 41 37 36 35 31 27 22 19 16 13 9 6 3 3 8 13 20 25 31 36 40 45 49 52 55 59 61 62 62 63 67 70 75 79 88 94 92 86
54 51 51 51 48 43 39 38 36 33 29 24 21 17 14 11 9 5 3 7 13 20 26 32 38 43 46 50 52 57 60 62 64 65 66 67 69 72 80 87 96 97 96
61 57 52 48 50 42 41 40 38 34 28 24 21 16 14 11 8 6 5 9 14 21 27 33 40 45 49 52 56 59 62 63 66 68 68 72 74 76 79 85 95 109 101
63 58 52 50 48 44 42 41 38 33 28 24 21 17 14 11 8 5 7 13 19 25 31 38 45 49 54 57 60 63 66 67 69 71 72 75 76 78 80 82 85 95 115
57 53 51 52 46 43 42 40 37 32 28 23 19 16 12 9 6 6 11 17 24 30 37 43 48 53 58 61 63 67 69 71 72 73 76 77 79 80 80 82 84 86 97
50 52 49 47 45 42 41 38 34 31 26 21 17 14 11 8 6 10 15 21 27 34 40 46 51 57 61 64 67 70 72 73 75 75 77 79 78 81 82 84 84 86 88
44 43 42 45 44 42 40 37 33 29 25 20 16 13 10 7 9 14 19 25 32 37 43 49 54 59 64 67 70 73 73 76 77 77 79 80 80 83 83 83 85 86 87
46 44 40 43 42 40 38 35 32 28 24 19 16 12 10 10 13 17 23 30 35 41 47 53 59 64 67 70 71 73 74 75 76 78 79 81 82 85 84 84 85 84 84
51 43 44 42 39 37 36 34 31 27 23 19 15 12 11 11 15 21 27 34 40 46 53 58 62 65 69 72 72 73 75 75 75 76 77 79 80 82 84 84 84 85 85
40 42 42 39 36 34 32 32 29 26 22 18 14 12 11 14 19 25 32 38 45 51 56 61 64 68 71 71 74 74 75 77 79 77 77 77 77 79 80 83 85 83 84
35 37 37 37 35 34 33 31 28 24 19 15 12 10 13 17 23 30 36 43 50 54 59 65 68 71 71 72 74 76 77 78 80 82 80 78 78 78 78 78 75 74 75
32 32 35 34 33 32 32 30 26 20 16 12 11 12 16 22 28 35 42 48 54 58 63 67 69 70 71 72 74 76 77 79 78 80 81 82 76 78 76 74 71 69 68
30 33 32 30 29 28 26 24 20 16 13 10 11 15 20 27 34 40 47 51 55 61 65 67 68 69 70 72 76 76 77 77 77 78 78 80 81 77 75 72 70 69 65
27 29 29 28 26 26 23 20 16 12 9 10 14 19 26 32 39 45 50 52 57 62 64 64 68 70 70 73 74 79 77 79 79 75 72 77 76 72 71 73 77 78 73
25 27 27 25 24 21 19 17 13 11 11 13 19 25 30 36 42 46 50 54 57 61 62 66 67 67 71 70 78 76 77 81 80 76 72 71 70 70 73 78 77 76 73
26 25 25 24 21 19 17 13 10 9 12 17 23 28 34 40 44 48 52 55 58 61 65 67 67 68 69 73 76 76 78 78 80 78 75 68 67 74 80 77 70 66 73
25 26 25 21 17 14 12 9 7 9 15 20 26 33 38 43 47 50 52 55 60 65 68 69 70 69 69 71 73 74 73 77 76 75 69 66 71 78 74 72 67 74 73
24 23 23 18 12 9 7 6 9 14 19 26 32 38 42 46 48 51 56 61 62 64 68 71 73 73 71 71 71 73 74 71 70 65 65 71 73 71 68 67 72 75 70
23 22 20 16 11 6 5 8 14 19 24 31 37 41 44 47 52 55 56 59 60 66 70 70 71 72 71 72 69 69 66 64 64 64 64 70 69 66 67 67 66 68 67
19 17 16 11 7 6 10 14 18 23 30 36 40 44 46 52 55 55 53 58 60 63 66 66 67 71 72 69 70 69 68 65 66 67 69 70 68 66 68 68 66 70 74
18 14 10 6 3 7 13 17 24 29 34 38 42 44 47 51 51 53 58 57 57 58 59 62 64 64 64 66 66 66 67 71 69 67 70 69 68 67 72 73 72 71 72
Wind_Direction
236 232 230 232 226 212 214 213 205 197 184 176 166 149 104 72 53 43 46 43 37 32 29 25 21 17 14 12 11 10 4 1 359 0 358 356 352 353 342 340 337 334 332
233 231 230 228 224 215 214 214 208 203 201 200 214 191 123 50 54 42 34 36 33 29 25 21 16 13 11 8 7 6 2 0 359 356 355 348 347 343 334 338 338 334 333
231 230 228 224 223 217 212 213 211 209 207 202 196 195 353 5 354 25 30 26 30 26 21 15 11 9 7 4 4 2 360 356 357 357 356 347 341 332 338 334 335 330 330
230 227 224 224 220 218 215 216 215 210 207 196 195 197 239 233 277 48 29 27 23 18 14 11 6 5 3 2 1 1 358 356 352 355 353 351 343 337 328 332 328 330 327
226 224 222 222 221 219 211 212 215 212 208 208 204 216 228 270 186 42 40 20 10 8 6 3 1 359 358 358 358 355 354 354 352 350 347 345 341 338 332 324 326 325 328
207 222 227 226 223 220 213 213 212 215 213 212 212 217 214 223 223 265 334 354 358 357 355 355 354 354 353 353 352 351 350 350 348 347 344 341 338 333 330 324 322 322 325
213 204 195 218 222 213 206 210 212 218 222 218 218 219 214 212 216 228 287 333 343 344 346 347 348 348 349 349 349 347 346 345 343 342 339 338 334 332 328 325 322 319 321
217 210 206 198 220 206 207 212 216 219 219 221 218 219 216 227 235 248 291 323 335 339 343 344 344 344 345 344 343 342 341 341 339 338 336 334 332 330 328 325 322 318 319
218 210 205 206 212 208 207 209 214 215 217 220 226 227 225 222 232 267 309 325 333 335 338 338 338 339 339 339 339 338 337 337 336 335 334 332 330 329 328 326 324 321 317
214 205 203 211 206 209 212 210 212 214 221 223 221 217 218 221 239 287 313 324 330 333 334 335 336 336 337 337 337 336 335 335 334 333 332 331 329 329 328 327 325 322 318
203 207 206 207 207 209 205 206 210 214 216 213 213 205 211 225 267 301 317 324 329 331 332 333 334 334 335 335 334 334 333 333 332 333 331 330 330 328 328 326 325 323 321
207 206 201 202 204 203 205 206 209 208 209 207 205 211 219 246 286 308 319 325 328 330 332 333 333 334 333 333 333 332 332 332 332 331 330 329 329 327 327 326 325 323 322
214 212 201 198 199 201 203 204 205 204 206 205 207 218 238 270 297 313 321 325 327 329 331 332 332 331 332 332 332 332 332 332 331 330 330 329 328 327 327 326 325 324 322
217 209 208 200 197 197 197 199 203 201 201 206 213 228 255 284 306 317 322 325 328 329 330 331 331 331 331 332 332 332 332 331 331 331 330 329 328 327 327 326 325 324 322
215 208 205 197 194 193 196 198 197 196 199 206 221 243 276 302 314 320 323 326 328 328 330 331 331 331 332 332 332 332 332 331 330 330 330 330 329 328 328 327 325 324 323
212 207 199 193 194 192 191 189 191 195 200 211 230 261 291 308 316 320 324 325 327 329 330 330 331 331 332 333 333 332 332 332 331 330 331 331 331 330 329 328 327 325 324
213 202 198 194 195 192 186 186 188 193 203 218 249 280 300 311 317 322 323 325 327 329 330 330 331 332 333 333 333 333 332 332 332 332 332 331 332 332 331 330 329 328 326
209 203 198 192 190 185 185 180 183 195 210 236 270 295 307 314 319 321 324 326 328 329 330 331 332 332 334 335 334 333 334 333 333 333 333 332 332 333 332 332 330 329 328
206 201 192 185 182 179 178 177 185 194 219 260 288 304 312 316 320 322 325 327 329 330 331 332 332 333 334 335 335 333 333 333 333 335 335 333 333 334 334 333 331 331 331
196 186 183 176 171 178 175 175 193 220 254 281 300 312 317 320 323 325 327 329 331 331 332 332 334 335 334 336 335 335 334 332 333 335 335 336 336 336 335 333 333 333 336
184 173 170 173 172 172 175 189 215 250 284 304 313 319 323 325 326 328 329 331 331 332 332 333 334 335 335 335 336 337 335 335 335 335 337 339 339 336 332 333 336 337 337
178 172 172 174 176 180 183 207 249 292 310 317 321 324 327 328 328 329 331 332 331 331 331 332 333 335 337 337 337 338 338 337 337 338 340 341 339 335 337 339 341 338 339
176 171 166 170 178 188 193 240 293 312 318 322 324 326 329 330 332 331 330 330 331 331 332 332 332 334 336 337 339 339 339 340 341 342 342 340 338 339 341 343 342 340 343
169 168 167 175 186 211 275 307 314 322 324 323 325 329 330 332 332 332 332 331 332 332 332 333 334 335 337 338 340 341 343 344 345 343 343 340 340 342 342 344 346 345 345
164 165 168 177 207 269 307 321 327 328 323 325 327 329 330 330 330 333 335 334 335 335 335 336 337 337 338 341 343 345 345 346 344 341 340 339 341 343 343 345 348 347 345
152 152 156 166 262 311 320 331 332 331 327 328 329 330 330 332 334 335 335 340 340 342 343 341 341 342 343 344 347 348 347 344 342 342 339 339 341 341 338 340 343 346 347